VTK609 UHMM-UIII

Flight info

Callsign VTK609
Flight time 3h 50m
Altitude 32000
Route BANOT G369 ASKIB N148 PINNU/K0848F340 N148 BDB W269 GARAK W225 KA
Aircraft B739/M-SDE2E3FGHIRWXY/LB1

Departure

Time 2026-04-29 09:33
Airport Sokol Airport (UHMM)

Arrival

Time 2026-04-29 13:24
Airport Irkutsk International Airport (UIII)
Time Latitude Longitude Altitude Speed Heading
2026-04-29 09:19 59.91324 150.73355 581 ft 0 kts 183°
2026-04-29 09:27 59.91320 150.73354 581 ft 2 kts 183°
2026-04-29 09:27 59.91291 150.73351 581 ft 6 kts 183°
2026-04-29 09:27 59.91249 150.73325 582 ft 7 kts 219°
2026-04-29 09:28 59.91213 150.73242 582 ft 9 kts 230°
2026-04-29 09:28 59.91172 150.73143 582 ft 10 kts 231°
2026-04-29 09:28 59.91131 150.73044 583 ft 6 kts 230°
2026-04-29 09:28 59.91094 150.73010 585 ft 6 kts 167°
2026-04-29 09:29 59.91070 150.73081 585 ft 7 kts 98°
2026-04-29 09:29 59.91061 150.73358 582 ft 14 kts 93°
2026-04-29 09:29 59.91056 150.73557 582 ft 15 kts 93°
2026-04-29 09:30 59.91049 150.73786 579 ft 18 kts 93°
2026-04-29 09:30 59.91042 150.74041 580 ft 18 kts 93°
2026-04-29 09:30 59.91036 150.74290 581 ft 18 kts 93°
2026-04-29 09:30 59.91028 150.74536 584 ft 17 kts 95°
2026-04-29 09:31 59.91016 150.74773 584 ft 16 kts 96°
2026-04-29 09:31 59.91006 150.74952 584 ft 10 kts 96°
2026-04-29 09:31 59.91001 150.75055 583 ft 4 kts 85°
2026-04-29 09:31 59.91019 150.75040 584 ft 4 kts 275°
2026-04-29 09:32 59.91018 150.74970 584 ft 6 kts 273°
2026-04-29 09:32 59.91018 150.74959 584 ft 0 kts 273°
2026-04-29 09:32 59.91018 150.74955 584 ft 1 kts 273°
2026-04-29 09:32 59.91026 150.74677 584 ft 49 kts 273°
2026-04-29 09:33 59.91055 150.73550 582 ft 111 kts 273°
2026-04-29 09:33 59.91105 150.71692 582 ft 158 kts 272°
2026-04-29 09:33 59.91148 150.69345 880 ft 173 kts 271°
2026-04-29 09:33 59.91194 150.66880 1368 ft 182 kts 271°
2026-04-29 09:34 59.91263 150.64299 1942 ft 188 kts 273°
2026-04-29 09:34 59.91342 150.61726 2597 ft 191 kts 275°
2026-04-29 09:34 59.91419 150.58952 2862 ft 211 kts 274°
2026-04-29 09:34 59.91505 150.55889 3086 ft 230 kts 274°
2026-04-29 09:35 59.91597 150.52607 3444 ft 247 kts 274°
2026-04-29 09:35 59.91697 150.49037 3831 ft 263 kts 274°
2026-04-29 09:35 59.91671 150.45395 4628 ft 265 kts 258°
2026-04-29 09:35 59.91107 150.41917 5471 ft 264 kts 250°
2026-04-29 09:36 59.90474 150.38487 6196 ft 268 kts 250°
2026-04-29 09:36 59.89825 150.34968 6859 ft 273 kts 251°
2026-04-29 09:36 59.89166 150.31368 7487 ft 278 kts 251°
2026-04-29 09:36 59.88502 150.27723 8219 ft 280 kts 250°
2026-04-29 09:37 59.87845 150.24098 8894 ft 284 kts 250°
2026-04-29 09:37 59.87168 150.20357 9587 ft 288 kts 250°
2026-04-29 09:37 59.86486 150.16576 10228 ft 291 kts 250°
2026-04-29 09:37 59.85787 150.12705 10475 ft 311 kts 250°
2026-04-29 09:38 59.85032 150.08525 10655 ft 330 kts 250°
2026-04-29 09:38 59.84229 150.04084 10817 ft 349 kts 250°
2026-04-29 09:38 59.83385 149.99421 11137 ft 362 kts 250°
2026-04-29 09:38 59.82528 149.94699 11682 ft 368 kts 250°
2026-04-29 09:39 59.81651 149.89878 12307 ft 371 kts 250°
2026-04-29 09:39 59.80776 149.85077 12899 ft 375 kts 250°
2026-04-29 09:39 59.79878 149.80162 13491 ft 379 kts 250°
2026-04-29 09:39 59.78969 149.75199 14039 ft 383 kts 250°
2026-04-29 09:40 59.78061 149.70262 14632 ft 384 kts 249°
2026-04-29 09:40 59.77135 149.65235 15198 ft 387 kts 249°
2026-04-29 09:40 59.76204 149.60183 15681 ft 392 kts 249°
2026-04-29 09:40 59.75268 149.55122 16194 ft 396 kts 249°
2026-04-29 09:41 59.74311 149.49969 16713 ft 399 kts 249°
2026-04-29 09:41 59.73353 149.44821 17212 ft 403 kts 249°
2026-04-29 09:41 59.72377 149.39589 17716 ft 407 kts 249°
2026-04-29 09:41 59.71386 149.34290 18196 ft 410 kts 249°
2026-04-29 09:42 59.70384 149.28941 18649 ft 414 kts 249°
2026-04-29 09:42 59.69386 149.23629 19069 ft 417 kts 249°
2026-04-29 09:42 59.68362 149.18204 19496 ft 421 kts 249°
2026-04-29 09:42 59.67533 149.12624 19887 ft 425 kts 264°
2026-04-29 09:43 59.67376 149.06748 20319 ft 427 kts 269°
2026-04-29 09:43 59.67290 149.00895 20739 ft 431 kts 269°
2026-04-29 09:43 59.67194 148.94922 21144 ft 435 kts 269°
2026-04-29 09:43 59.67084 148.88957 21543 ft 438 kts 268°
2026-04-29 09:44 59.66957 148.82882 21943 ft 442 kts 268°
2026-04-29 09:44 59.66818 148.76834 22331 ft 445 kts 268°
2026-04-29 09:44 59.66669 148.70678 22724 ft 449 kts 268°
2026-04-29 09:44 59.66512 148.64454 23128 ft 452 kts 268°
2026-04-29 09:45 59.66350 148.58217 23530 ft 455 kts 268°
2026-04-29 09:45 59.66186 148.51998 23841 ft 458 kts 268°
2026-04-29 09:45 59.66016 148.45683 24194 ft 460 kts 268°
2026-04-29 09:45 59.65842 148.39331 24549 ft 462 kts 268°
2026-04-29 09:46 59.65667 148.33010 24805 ft 466 kts 268°
2026-04-29 09:46 59.65485 148.26551 25124 ft 469 kts 268°
2026-04-29 09:46 59.65299 148.20089 25466 ft 471 kts 268°
2026-04-29 09:46 59.65112 148.13684 25800 ft 473 kts 268°
2026-04-29 09:47 59.64918 148.07156 26110 ft 475 kts 267°
2026-04-29 09:47 59.64720 148.00598 26411 ft 478 kts 267°
2026-04-29 09:47 59.64519 147.94030 26707 ft 480 kts 267°
2026-04-29 09:47 59.64315 147.87487 26998 ft 482 kts 267°
2026-04-29 09:48 59.64104 147.80833 27281 ft 484 kts 267°
2026-04-29 09:48 59.63889 147.74149 27573 ft 486 kts 267°
2026-04-29 09:48 59.63673 147.67544 27853 ft 489 kts 267°
2026-04-29 09:48 59.63448 147.60786 28118 ft 492 kts 267°
2026-04-29 09:49 59.63220 147.54022 28437 ft 493 kts 266°
2026-04-29 09:49 59.62987 147.47254 28896 ft 491 kts 266°
2026-04-29 09:49 59.62757 147.40625 29358 ft 489 kts 266°
2026-04-29 09:49 59.62520 147.33932 29751 ft 488 kts 266°
2026-04-29 09:50 59.62280 147.27227 30075 ft 488 kts 266°
2026-04-29 09:50 59.62037 147.20544 30503 ft 484 kts 266°
2026-04-29 09:50 59.61793 147.13921 30900 ft 481 kts 266°
2026-04-29 09:50 59.61549 147.07378 31222 ft 480 kts 266°
2026-04-29 09:51 59.61299 147.00774 31512 ft 480 kts 266°
2026-04-29 09:51 59.61050 146.94289 31811 ft 479 kts 266°
2026-04-29 09:51 59.60794 146.87701 31917 ft 481 kts 265°
2026-04-29 09:51 59.60533 146.81060 31916 ft 482 kts 265°
2026-04-29 09:52 59.60008 146.67967 31903 ft 479 kts 265°
2026-04-29 09:52 59.59468 146.54846 31910 ft 477 kts 265°
2026-04-29 09:53 59.58922 146.41885 31910 ft 476 kts 265°
2026-04-29 09:53 59.58360 146.28860 31917 ft 475 kts 265°
2026-04-29 09:54 59.57785 146.15828 31916 ft 476 kts 265°
2026-04-29 09:54 59.57200 146.02873 31922 ft 477 kts 265°
2026-04-29 09:55 59.56599 145.89793 31908 ft 478 kts 265°
2026-04-29 09:55 59.56011 145.76768 31912 ft 479 kts 265°
2026-04-29 09:56 59.55442 145.63661 31917 ft 479 kts 265°
2026-04-29 09:56 59.54859 145.50542 31914 ft 480 kts 265°
2026-04-29 09:57 59.54263 145.37510 31917 ft 480 kts 265°
2026-04-29 09:57 59.53647 145.24395 31931 ft 480 kts 264°
2026-04-29 09:58 59.53021 145.11353 31930 ft 480 kts 264°
2026-04-29 09:58 59.52378 144.98228 31920 ft 480 kts 264°
2026-04-29 09:59 59.51721 144.85084 31936 ft 480 kts 264°
2026-04-29 09:59 59.51054 144.72009 31938 ft 480 kts 264°
2026-04-29 10:00 59.50374 144.58935 31931 ft 481 kts 264°
2026-04-29 10:00 59.49680 144.45849 31921 ft 480 kts 264°
2026-04-29 10:01 59.48976 144.32827 31933 ft 479 kts 263°
2026-04-29 10:01 59.48262 144.19844 31932 ft 479 kts 263°
2026-04-29 10:02 59.47522 144.06772 31931 ft 479 kts 263°
2026-04-29 10:02 59.46646 143.93829 31938 ft 478 kts 262°
2026-04-29 10:03 59.45723 143.80936 31934 ft 478 kts 262°
2026-04-29 10:03 59.44796 143.67946 31937 ft 478 kts 262°
2026-04-29 10:04 59.43874 143.55051 31948 ft 478 kts 262°
2026-04-29 10:04 59.42936 143.42090 31939 ft 478 kts 261°
2026-04-29 10:05 59.41985 143.29143 31935 ft 478 kts 261°
2026-04-29 10:05 59.41028 143.16268 31926 ft 478 kts 261°
2026-04-29 10:06 59.40128 143.03300 31931 ft 478 kts 267°
2026-04-29 10:06 59.40093 142.90311 31924 ft 477 kts 271°
2026-04-29 10:07 59.40219 142.77250 31926 ft 477 kts 271°
2026-04-29 10:07 59.40295 142.64213 31931 ft 477 kts 270°
2026-04-29 10:08 59.40316 142.51263 31919 ft 478 kts 270°
2026-04-29 10:08 59.40309 142.38170 31929 ft 477 kts 270°
2026-04-29 10:09 59.40287 142.25153 31906 ft 477 kts 270°
2026-04-29 10:09 59.40254 142.12189 31904 ft 476 kts 270°
2026-04-29 10:10 59.40209 141.99264 31895 ft 475 kts 270°
2026-04-29 10:10 59.40152 141.86298 31899 ft 474 kts 270°
2026-04-29 10:11 59.40082 141.73413 31898 ft 473 kts 270°
2026-04-29 10:11 59.39999 141.60462 31905 ft 472 kts 270°
2026-04-29 10:12 59.39905 141.47635 31903 ft 470 kts 270°
2026-04-29 10:12 59.39798 141.34854 31893 ft 468 kts 270°
2026-04-29 10:13 59.39679 141.22116 31884 ft 467 kts 270°
2026-04-29 10:13 59.39547 141.09349 31891 ft 466 kts 269°
2026-04-29 10:14 59.39404 140.96687 31890 ft 467 kts 269°
2026-04-29 10:14 59.39247 140.83822 32179 ft 471 kts 270°
2026-04-29 10:15 59.39192 140.79556 32541 ft 466 kts 270°
2026-04-29 10:15 59.39078 140.71164 33123 ft 461 kts 270°
2026-04-29 10:15 59.38990 140.64880 33368 ft 461 kts 270°
2026-04-29 10:15 59.38930 140.60680 33484 ft 462 kts 270°
2026-04-29 10:16 59.38806 140.52281 33705 ft 464 kts 270°
2026-04-29 10:16 59.38742 140.48076 33824 ft 463 kts 270°
2026-04-29 10:16 59.38539 140.35377 33866 ft 465 kts 270°
2026-04-29 10:17 59.38324 140.22717 33867 ft 463 kts 270°
2026-04-29 10:17 59.38098 140.10148 33862 ft 461 kts 270°
2026-04-29 10:18 59.37862 139.97638 33849 ft 459 kts 270°
2026-04-29 10:18 59.37614 139.85103 33860 ft 457 kts 270°
2026-04-29 10:19 59.37355 139.72685 33866 ft 456 kts 270°
2026-04-29 10:19 59.37085 139.60285 33868 ft 456 kts 270°
2026-04-29 10:20 59.36804 139.47871 33867 ft 456 kts 270°
2026-04-29 10:20 59.36509 139.35412 33872 ft 456 kts 269°
2026-04-29 10:21 59.36204 139.23003 33855 ft 458 kts 270°
2026-04-29 10:21 59.35884 139.10497 33871 ft 458 kts 270°
2026-04-29 10:22 59.35554 138.98049 33855 ft 458 kts 270°
2026-04-29 10:22 59.35211 138.85603 33856 ft 458 kts 269°
2026-04-29 10:23 59.34855 138.73099 33861 ft 458 kts 269°
2026-04-29 10:23 59.34490 138.60668 33848 ft 458 kts 269°
2026-04-29 10:24 59.34113 138.48265 33869 ft 458 kts 269°
2026-04-29 10:24 59.33721 138.35754 33865 ft 458 kts 269°
2026-04-29 10:25 59.33321 138.23359 33850 ft 458 kts 269°
2026-04-29 10:25 59.32906 138.10878 33864 ft 457 kts 269°
2026-04-29 10:26 59.32483 137.98497 33860 ft 457 kts 269°
2026-04-29 10:26 59.32045 137.86034 33831 ft 457 kts 269°
2026-04-29 10:27 59.31371 137.67461 33847 ft 456 kts 269°
2026-04-29 10:28 59.30909 137.55124 33838 ft 455 kts 269°
2026-04-29 10:28 59.30442 137.42719 33837 ft 455 kts 269°
2026-04-29 10:29 59.29974 137.30428 33835 ft 454 kts 269°
2026-04-29 10:29 59.29494 137.18064 33825 ft 454 kts 269°
2026-04-29 10:30 59.29003 137.05775 33833 ft 453 kts 269°
2026-04-29 10:30 59.28504 136.93553 33819 ft 452 kts 269°
2026-04-29 10:31 59.27989 136.81245 33791 ft 452 kts 269°
2026-04-29 10:31 59.27468 136.69083 33817 ft 451 kts 269°
2026-04-29 10:32 59.26931 136.56805 33829 ft 451 kts 268°
2026-04-29 10:32 59.26387 136.44639 33830 ft 450 kts 268°
2026-04-29 10:33 59.25833 136.32502 33813 ft 450 kts 268°
2026-04-29 10:33 59.25266 136.20319 33827 ft 449 kts 268°
2026-04-29 10:34 59.24690 136.08208 33824 ft 449 kts 268°
2026-04-29 10:34 59.24100 135.96028 33810 ft 449 kts 268°
2026-04-29 10:35 59.23503 135.83952 33818 ft 448 kts 268°
2026-04-29 10:35 59.22894 135.71834 33824 ft 448 kts 268°
2026-04-29 10:36 59.22277 135.59765 33824 ft 447 kts 268°
2026-04-29 10:36 59.21493 135.47668 33827 ft 448 kts 265°
2026-04-29 10:37 59.20526 135.35674 33821 ft 448 kts 264°
2026-04-29 10:37 59.19550 135.23658 33821 ft 448 kts 264°
2026-04-29 10:38 59.18594 135.11716 33813 ft 446 kts 265°
2026-04-29 10:38 59.17640 134.99754 33821 ft 445 kts 265°
2026-04-29 10:39 59.16687 134.87909 33820 ft 444 kts 265°
2026-04-29 10:39 59.15717 134.75997 33827 ft 443 kts 265°
2026-04-29 10:40 59.14744 134.64193 33815 ft 442 kts 264°
2026-04-29 10:40 59.13758 134.52382 33823 ft 440 kts 264°
2026-04-29 10:41 59.12764 134.40598 33811 ft 440 kts 264°
2026-04-29 10:41 59.11768 134.28920 33814 ft 440 kts 264°
2026-04-29 10:42 59.10753 134.17149 33831 ft 441 kts 264°
2026-04-29 10:42 59.09725 134.05363 33814 ft 442 kts 263°
2026-04-29 10:43 59.08690 133.93630 33813 ft 443 kts 263°
2026-04-29 10:43 59.07633 133.81783 33816 ft 444 kts 263°
2026-04-29 10:44 59.06571 133.69993 33815 ft 445 kts 263°
2026-04-29 10:44 59.05488 133.58114 33802 ft 444 kts 263°
2026-04-29 10:45 59.04407 133.46368 33808 ft 444 kts 262°
2026-04-29 10:45 59.03312 133.34601 33806 ft 443 kts 262°
2026-04-29 10:46 59.02204 133.22820 33811 ft 443 kts 262°
2026-04-29 10:46 59.01085 133.11032 33807 ft 442 kts 262°
2026-04-29 10:47 58.99964 132.99350 33806 ft 442 kts 262°
2026-04-29 10:47 58.98827 132.87619 33790 ft 441 kts 262°
2026-04-29 10:48 58.97683 132.75926 33790 ft 439 kts 262°
2026-04-29 10:48 58.96536 132.64320 33791 ft 438 kts 262°
2026-04-29 10:49 58.95390 132.52833 33793 ft 436 kts 262°
2026-04-29 10:49 58.94227 132.41289 33790 ft 435 kts 261°
2026-04-29 10:50 58.93057 132.29780 33791 ft 434 kts 261°
2026-04-29 10:50 58.91885 132.18367 33787 ft 434 kts 261°
2026-04-29 10:51 58.90698 132.06906 33773 ft 433 kts 261°
2026-04-29 10:51 58.89512 131.95562 33780 ft 432 kts 261°
2026-04-29 10:52 58.88310 131.84170 33776 ft 432 kts 261°
2026-04-29 10:52 58.87098 131.72786 33779 ft 431 kts 261°
2026-04-29 10:53 58.85888 131.61518 33780 ft 430 kts 261°
2026-04-29 10:53 58.84660 131.50175 33779 ft 430 kts 261°
2026-04-29 10:54 58.83423 131.38857 33777 ft 430 kts 261°
2026-04-29 10:54 58.82185 131.27631 33776 ft 430 kts 260°
2026-04-29 10:55 58.80926 131.16302 33777 ft 432 kts 260°
2026-04-29 10:55 58.79658 131.04994 33777 ft 433 kts 260°
2026-04-29 10:56 58.78369 130.93595 33775 ft 435 kts 260°
2026-04-29 10:56 58.77066 130.82165 33775 ft 436 kts 260°
2026-04-29 10:57 58.75753 130.70738 33772 ft 437 kts 260°
2026-04-29 10:57 58.74952 130.59235 33777 ft 433 kts 271°
2026-04-29 10:58 58.74889 130.47601 33773 ft 434 kts 271°
2026-04-29 10:58 58.74810 130.35978 33768 ft 434 kts 271°
2026-04-29 10:59 58.74694 130.24352 33769 ft 433 kts 271°
2026-04-29 10:59 58.74557 130.12803 33766 ft 433 kts 270°
2026-04-29 11:00 58.74407 130.01205 33769 ft 432 kts 270°
2026-04-29 11:00 58.74248 129.89622 33768 ft 432 kts 270°
2026-04-29 11:01 58.74080 129.78115 33771 ft 432 kts 270°
2026-04-29 11:01 58.73902 129.66567 33759 ft 430 kts 270°
2026-04-29 11:02 58.73746 129.56994 33764 ft 428 kts 270°
2026-04-29 11:02 58.73520 129.43689 33768 ft 427 kts 270°
2026-04-29 11:03 58.73351 129.34196 33760 ft 425 kts 270°
2026-04-29 11:03 58.73143 129.22830 33763 ft 424 kts 270°
2026-04-29 11:04 58.72927 129.11474 33772 ft 423 kts 270°
2026-04-29 11:04 58.72703 129.00185 33771 ft 423 kts 270°
2026-04-29 11:05 58.72468 128.88858 33771 ft 424 kts 270°
2026-04-29 11:05 58.72222 128.77520 33764 ft 424 kts 269°
2026-04-29 11:06 58.71966 128.66160 33762 ft 424 kts 270°
2026-04-29 11:06 58.71700 128.54801 33780 ft 425 kts 269°
2026-04-29 11:07 58.71425 128.43487 33781 ft 426 kts 269°
2026-04-29 11:07 58.71137 128.32069 33788 ft 426 kts 269°
2026-04-29 11:08 58.70841 128.20692 33797 ft 427 kts 269°
2026-04-29 11:08 58.70532 128.09244 33803 ft 427 kts 269°
2026-04-29 11:09 58.70215 127.97856 33797 ft 428 kts 269°
2026-04-29 11:09 58.69887 127.86479 33778 ft 428 kts 269°
2026-04-29 11:10 58.69548 127.75015 33806 ft 427 kts 269°
2026-04-29 11:10 58.69201 127.63673 33810 ft 427 kts 269°
2026-04-29 11:11 58.68843 127.52256 33803 ft 427 kts 269°
2026-04-29 11:11 58.68475 127.40849 33812 ft 427 kts 269°
2026-04-29 11:12 58.68100 127.29527 33815 ft 427 kts 269°
2026-04-29 11:12 58.67713 127.18103 33817 ft 427 kts 269°
2026-04-29 11:13 58.67313 127.06772 33816 ft 427 kts 268°
2026-04-29 11:13 58.66887 126.95398 33824 ft 427 kts 268°
2026-04-29 11:14 58.66451 126.84018 33805 ft 426 kts 268°
2026-04-29 11:14 58.66007 126.72669 33810 ft 425 kts 268°
2026-04-29 11:15 58.65558 126.61396 33817 ft 424 kts 268°
2026-04-29 11:15 58.65099 126.50097 33813 ft 424 kts 268°
2026-04-29 11:16 58.64629 126.38804 33816 ft 423 kts 268°
2026-04-29 11:16 58.64152 126.27573 33812 ft 423 kts 268°
2026-04-29 11:17 58.63662 126.16278 33805 ft 423 kts 267°
2026-04-29 11:17 58.63166 126.05063 33814 ft 424 kts 267°
2026-04-29 11:18 58.62656 125.93762 33809 ft 424 kts 267°
2026-04-29 11:18 58.62140 125.82539 33814 ft 424 kts 267°
2026-04-29 11:19 58.61610 125.71227 33806 ft 424 kts 267°
2026-04-29 11:19 58.61074 125.60018 33823 ft 423 kts 266°
2026-04-29 11:20 58.60529 125.48780 33806 ft 424 kts 266°
2026-04-29 11:20 58.59983 125.37507 33812 ft 423 kts 268°
2026-04-29 11:21 58.59690 125.26301 33815 ft 423 kts 270°
2026-04-29 11:21 58.59465 125.14984 33813 ft 423 kts 269°
2026-04-29 11:22 58.59205 125.03763 33815 ft 423 kts 269°
2026-04-29 11:22 58.58912 124.92451 33806 ft 423 kts 269°
2026-04-29 11:23 58.58606 124.81245 33815 ft 423 kts 269°
2026-04-29 11:23 58.58288 124.69941 33815 ft 423 kts 269°
2026-04-29 11:24 58.57963 124.58733 33811 ft 423 kts 268°
2026-04-29 11:24 58.57627 124.47453 33808 ft 423 kts 268°
2026-04-29 11:25 58.57283 124.36176 33816 ft 424 kts 268°
2026-04-29 11:25 58.56929 124.24934 33821 ft 424 kts 268°
2026-04-29 11:26 58.56391 124.07977 33816 ft 425 kts 268°
2026-04-29 11:26 58.56022 123.96673 33806 ft 425 kts 268°
2026-04-29 11:27 58.55643 123.85349 33815 ft 425 kts 268°
2026-04-29 11:27 58.55257 123.74127 33835 ft 425 kts 268°
2026-04-29 11:28 58.54859 123.62833 33825 ft 424 kts 268°
2026-04-29 11:28 58.54453 123.51621 33829 ft 423 kts 268°
2026-04-29 11:29 58.54037 123.40373 33823 ft 422 kts 268°
2026-04-29 11:29 58.53612 123.29177 33826 ft 421 kts 268°
2026-04-29 11:30 58.53181 123.18072 33838 ft 420 kts 268°
2026-04-29 11:30 58.52739 123.06911 33834 ft 419 kts 268°
2026-04-29 11:31 58.52291 122.95835 33838 ft 419 kts 267°
2026-04-29 11:31 58.51833 122.84719 33829 ft 419 kts 267°
2026-04-29 11:32 58.51361 122.73585 33838 ft 419 kts 267°
2026-04-29 11:32 58.50878 122.62496 33837 ft 418 kts 267°
2026-04-29 11:33 58.50390 122.51466 33847 ft 418 kts 267°
2026-04-29 11:33 58.49891 122.40377 33849 ft 418 kts 267°
2026-04-29 11:34 58.49384 122.29293 33856 ft 418 kts 266°
2026-04-29 11:34 58.48870 122.18291 33852 ft 418 kts 266°
2026-04-29 11:35 58.48347 122.07209 33857 ft 418 kts 266°
2026-04-29 11:35 58.47819 121.96194 33849 ft 417 kts 266°
2026-04-29 11:36 58.47279 121.85126 33857 ft 418 kts 266°
2026-04-29 11:36 58.46730 121.74081 33859 ft 418 kts 266°
2026-04-29 11:37 58.46175 121.63080 33851 ft 418 kts 266°
2026-04-29 11:37 58.45605 121.52000 33853 ft 418 kts 266°
2026-04-29 11:38 58.45027 121.40933 33863 ft 419 kts 266°
2026-04-29 11:38 58.44442 121.29895 33863 ft 420 kts 265°
2026-04-29 11:39 58.43841 121.18760 33868 ft 421 kts 265°
2026-04-29 11:39 58.43229 121.07613 33867 ft 423 kts 265°
2026-04-29 11:40 58.42611 120.96491 33865 ft 424 kts 265°
2026-04-29 11:40 58.41978 120.85271 33865 ft 425 kts 265°
2026-04-29 11:41 58.41335 120.74029 33871 ft 426 kts 265°
2026-04-29 11:41 58.40680 120.62777 33866 ft 426 kts 265°
2026-04-29 11:42 58.40018 120.51576 33871 ft 427 kts 265°
2026-04-29 11:42 58.39343 120.40321 33874 ft 427 kts 265°
2026-04-29 11:43 58.38657 120.29047 33876 ft 427 kts 265°
2026-04-29 11:43 58.37967 120.17865 33870 ft 427 kts 265°
2026-04-29 11:44 58.37262 120.06624 33881 ft 427 kts 265°
2026-04-29 11:44 58.36548 119.95380 33875 ft 426 kts 264°
2026-04-29 11:45 58.35832 119.84254 33891 ft 426 kts 265°
2026-04-29 11:45 58.35102 119.73058 33896 ft 425 kts 264°
2026-04-29 11:46 58.34368 119.61884 33893 ft 425 kts 264°
2026-04-29 11:46 58.33635 119.50717 33899 ft 425 kts 264°
2026-04-29 11:47 58.32899 119.39634 33892 ft 425 kts 264°
2026-04-29 11:47 58.32144 119.28468 33899 ft 425 kts 264°
2026-04-29 11:48 58.31379 119.17303 33910 ft 425 kts 264°
2026-04-29 11:48 58.30611 119.06221 33918 ft 425 kts 264°
2026-04-29 11:49 58.29828 118.95058 33910 ft 425 kts 264°
2026-04-29 11:49 58.29035 118.83888 33920 ft 426 kts 264°
2026-04-29 11:50 58.28236 118.72770 33924 ft 427 kts 264°
2026-04-29 11:50 58.27422 118.61592 33929 ft 428 kts 264°
2026-04-29 11:51 58.26735 118.52259 33931 ft 428 kts 264°
2026-04-29 11:51 58.25899 118.41032 33933 ft 429 kts 263°
2026-04-29 11:52 58.25054 118.29823 33937 ft 429 kts 263°
2026-04-29 11:52 58.24198 118.18595 33929 ft 429 kts 263°
2026-04-29 11:53 58.23335 118.07425 33937 ft 431 kts 263°
2026-04-29 11:53 58.22456 117.96170 33935 ft 431 kts 263°
2026-04-29 11:54 58.21566 117.84908 33948 ft 432 kts 263°
2026-04-29 11:54 58.20664 117.73632 33954 ft 433 kts 263°
2026-04-29 11:55 58.19750 117.62331 33969 ft 433 kts 263°
2026-04-29 11:55 58.18825 117.51024 33983 ft 434 kts 263°
2026-04-29 11:56 58.17896 117.39797 33967 ft 434 kts 263°
2026-04-29 11:56 58.16952 117.28512 33973 ft 433 kts 263°
2026-04-29 11:57 58.15999 117.17249 33981 ft 432 kts 263°
2026-04-29 11:57 58.15038 117.06011 33996 ft 431 kts 262°
2026-04-29 11:58 58.14070 116.94810 33991 ft 430 kts 262°
2026-04-29 11:58 58.13103 116.83745 34009 ft 428 kts 262°
2026-04-29 11:59 58.12122 116.72627 34013 ft 427 kts 262°
2026-04-29 11:59 58.11133 116.61536 34000 ft 428 kts 262°
2026-04-29 12:00 58.10133 116.50427 34011 ft 428 kts 262°
2026-04-29 12:00 58.09128 116.39385 34019 ft 428 kts 262°
2026-04-29 12:01 58.08105 116.28265 34001 ft 430 kts 262°
2026-04-29 12:01 58.07069 116.17102 34008 ft 431 kts 262°
2026-04-29 12:02 58.06029 116.06013 33989 ft 432 kts 262°
2026-04-29 12:02 58.04970 115.94830 34010 ft 432 kts 262°
2026-04-29 12:03 58.03901 115.83654 34007 ft 433 kts 262°
2026-04-29 12:03 58.02819 115.72460 34007 ft 433 kts 262°
2026-04-29 12:04 58.01733 115.61325 34013 ft 433 kts 261°
2026-04-29 12:04 58.00634 115.50155 34011 ft 433 kts 261°
2026-04-29 12:05 57.99524 115.38994 34014 ft 433 kts 261°
2026-04-29 12:05 57.98407 115.27854 34014 ft 432 kts 261°
2026-04-29 12:06 57.97277 115.16699 34014 ft 432 kts 261°
2026-04-29 12:06 57.96149 115.05659 33993 ft 431 kts 261°
2026-04-29 12:07 57.95007 114.94584 34008 ft 431 kts 261°
2026-04-29 12:07 57.93855 114.83514 34020 ft 430 kts 261°
2026-04-29 12:08 57.92700 114.72513 34024 ft 430 kts 261°
2026-04-29 12:08 57.91529 114.61456 34022 ft 430 kts 261°
2026-04-29 12:09 57.90351 114.50424 34025 ft 430 kts 261°
2026-04-29 12:09 57.89164 114.39387 34026 ft 430 kts 261°
2026-04-29 12:10 57.87917 114.28452 34019 ft 432 kts 255°
2026-04-29 12:10 57.85391 114.18159 34019 ft 438 kts 239°
2026-04-29 12:11 57.81699 114.09029 34026 ft 439 kts 235°
2026-04-29 12:11 57.77928 114.00007 34024 ft 440 kts 235°
2026-04-29 12:12 57.74175 113.90950 34032 ft 440 kts 236°
2026-04-29 12:12 57.70449 113.81927 34032 ft 440 kts 236°
2026-04-29 12:13 57.66699 113.72871 34036 ft 440 kts 235°
2026-04-29 12:13 57.62944 113.63835 34032 ft 440 kts 235°
2026-04-29 12:14 57.59179 113.54819 34042 ft 440 kts 235°
2026-04-29 12:14 57.55411 113.45837 34046 ft 440 kts 235°
2026-04-29 12:15 57.51630 113.36861 34060 ft 440 kts 235°
2026-04-29 12:15 57.47869 113.27958 34059 ft 441 kts 235°
2026-04-29 12:16 57.44068 113.18992 34050 ft 441 kts 235°
2026-04-29 12:16 57.40258 113.10039 34054 ft 441 kts 235°
2026-04-29 12:17 57.36460 113.01144 34060 ft 441 kts 234°
2026-04-29 12:17 57.32644 112.92240 34068 ft 441 kts 234°
2026-04-29 12:18 57.28827 112.83367 34063 ft 441 kts 234°
2026-04-29 12:18 57.25003 112.74512 34100 ft 441 kts 234°
2026-04-29 12:19 57.21171 112.65663 34074 ft 440 kts 234°
2026-04-29 12:19 57.17360 112.56893 34080 ft 441 kts 234°
2026-04-29 12:20 57.13515 112.48072 34080 ft 440 kts 234°
2026-04-29 12:20 57.09664 112.39274 34068 ft 440 kts 234°
2026-04-29 12:21 57.05828 112.30539 34079 ft 440 kts 234°
2026-04-29 12:21 57.01981 112.21813 34079 ft 441 kts 234°
2026-04-29 12:22 56.98109 112.13061 34078 ft 441 kts 234°
2026-04-29 12:22 56.94227 112.04319 34089 ft 441 kts 234°
2026-04-29 12:23 56.90365 111.95651 34091 ft 442 kts 234°
2026-04-29 12:23 56.86469 111.86941 34089 ft 441 kts 234°
2026-04-29 12:24 56.82569 111.78251 34072 ft 441 kts 234°
2026-04-29 12:24 56.78696 111.69649 34088 ft 441 kts 233°
2026-04-29 12:25 56.74782 111.61022 34092 ft 441 kts 233°
2026-04-29 12:26 56.68788 111.48258 34101 ft 442 kts 232°
2026-04-29 12:26 56.64797 111.39816 34095 ft 442 kts 232°
2026-04-29 12:27 56.60787 111.31336 34091 ft 442 kts 233°
2026-04-29 12:27 56.56777 111.22877 34090 ft 441 kts 232°
2026-04-29 12:28 56.52789 111.14492 34117 ft 441 kts 232°
2026-04-29 12:28 56.48761 111.06053 34105 ft 441 kts 232°
2026-04-29 12:29 56.44739 110.97657 34119 ft 441 kts 232°
2026-04-29 12:29 56.40739 110.89336 34109 ft 440 kts 232°
2026-04-29 12:30 56.36717 110.80999 34120 ft 440 kts 232°
2026-04-29 12:30 56.32689 110.72676 34122 ft 440 kts 232°
2026-04-29 12:31 56.28659 110.64380 34123 ft 439 kts 232°
2026-04-29 12:31 56.24658 110.56172 34122 ft 438 kts 232°
2026-04-29 12:32 56.20620 110.47913 34119 ft 438 kts 232°
2026-04-29 12:32 56.16616 110.39750 34128 ft 438 kts 232°
2026-04-29 12:33 56.12568 110.31532 34131 ft 438 kts 232°
2026-04-29 12:33 56.08537 110.23375 34142 ft 439 kts 231°
2026-04-29 12:34 56.04486 110.15201 34148 ft 441 kts 231°
2026-04-29 12:34 56.00390 110.06963 34135 ft 442 kts 231°
2026-04-29 12:35 55.96312 109.98788 34150 ft 444 kts 231°
2026-04-29 12:35 55.92182 109.90537 34156 ft 445 kts 231°
2026-04-29 12:36 55.88062 109.82334 34165 ft 446 kts 231°
2026-04-29 12:36 55.83892 109.74060 34156 ft 447 kts 231°
2026-04-29 12:37 55.79735 109.65837 34129 ft 446 kts 231°
2026-04-29 12:37 55.75605 109.57698 34148 ft 444 kts 231°
2026-04-29 12:38 55.71254 109.49890 34164 ft 444 kts 227°
2026-04-29 12:38 55.66795 109.42381 34160 ft 443 kts 227°
2026-04-29 12:39 55.63085 109.36127 34159 ft 441 kts 227°
2026-04-29 12:39 55.57926 109.27363 34152 ft 440 kts 229°
2026-04-29 12:40 55.54242 109.21124 34162 ft 439 kts 228°
2026-04-29 12:40 55.49821 109.13650 34160 ft 438 kts 228°
2026-04-29 12:41 55.45433 109.06256 34168 ft 437 kts 228°
2026-04-29 12:41 55.41049 108.98886 34159 ft 437 kts 228°
2026-04-29 12:42 55.36656 108.91530 34152 ft 437 kts 228°
2026-04-29 12:42 55.32235 108.84158 34177 ft 436 kts 228°
2026-04-29 12:43 55.27860 108.76890 34193 ft 435 kts 228°
2026-04-29 12:43 55.23450 108.69595 34195 ft 436 kts 228°
2026-04-29 12:44 55.19055 108.62312 34200 ft 437 kts 228°
2026-04-29 12:44 55.14614 108.54992 34193 ft 438 kts 228°
2026-04-29 12:45 55.10147 108.47659 34207 ft 439 kts 228°
2026-04-29 12:45 55.05701 108.40381 34198 ft 440 kts 228°
2026-04-29 12:46 55.01232 108.33091 34195 ft 440 kts 228°
2026-04-29 12:46 54.96734 108.25775 34192 ft 441 kts 227°
2026-04-29 12:47 54.92246 108.18497 34189 ft 442 kts 227°
2026-04-29 12:47 54.87746 108.11223 34201 ft 444 kts 227°
2026-04-29 12:48 54.83225 108.03939 34214 ft 445 kts 227°
2026-04-29 12:48 54.78659 107.96607 34216 ft 447 kts 227°
2026-04-29 12:49 54.74104 107.89316 34212 ft 448 kts 227°
2026-04-29 12:49 54.69498 107.81965 34202 ft 447 kts 227°
2026-04-29 12:50 54.64943 107.74718 34208 ft 446 kts 227°
2026-04-29 12:50 54.60382 107.67494 34211 ft 445 kts 227°
2026-04-29 12:51 54.55804 107.60271 34213 ft 443 kts 227°
2026-04-29 12:51 54.51279 107.53149 34214 ft 441 kts 227°
2026-04-29 12:52 54.46768 107.46071 34210 ft 439 kts 227°
2026-04-29 12:52 54.42246 107.38994 34222 ft 438 kts 227°
2026-04-29 12:53 54.37752 107.31984 34215 ft 437 kts 227°
2026-04-29 12:53 54.33215 107.24924 34232 ft 443 kts 227°
2026-04-29 12:54 54.28639 107.17827 34197 ft 447 kts 227°
2026-04-29 12:54 54.24047 107.10735 34216 ft 441 kts 227°
2026-04-29 12:55 54.19499 107.03727 34228 ft 438 kts 227°
2026-04-29 12:55 54.14973 106.96779 34235 ft 437 kts 226°
2026-04-29 12:56 54.10470 106.89891 34234 ft 437 kts 226°
2026-04-29 12:56 54.05936 106.82971 34239 ft 437 kts 226°
2026-04-29 12:57 54.01403 106.76073 34238 ft 437 kts 226°
2026-04-29 12:57 53.96867 106.69190 34230 ft 437 kts 226°
2026-04-29 12:58 53.92337 106.62338 34246 ft 436 kts 226°
2026-04-29 12:58 53.87804 106.55502 34248 ft 436 kts 226°
2026-04-29 12:59 53.83272 106.48687 34241 ft 435 kts 226°
2026-04-29 12:59 53.78766 106.41933 34248 ft 434 kts 226°
2026-04-29 13:00 53.74231 106.35155 34233 ft 434 kts 226°
2026-04-29 13:00 53.69695 106.28394 34252 ft 435 kts 226°
2026-04-29 13:01 53.65143 106.21631 34252 ft 437 kts 226°
2026-04-29 13:01 53.62860 106.18246 34111 ft 439 kts 226°
2026-04-29 13:01 53.60536 106.14802 33562 ft 442 kts 226°
2026-04-29 13:01 53.58236 106.11407 32967 ft 438 kts 226°
2026-04-29 13:02 53.55950 106.08039 32446 ft 433 kts 226°
2026-04-29 13:02 53.53694 106.04719 31922 ft 429 kts 226°
2026-04-29 13:02 53.51454 106.01426 31396 ft 425 kts 226°
2026-04-29 13:02 53.49240 105.98174 30889 ft 421 kts 226°
2026-04-29 13:03 53.47070 105.94989 30386 ft 418 kts 226°
2026-04-29 13:03 53.44887 105.91790 29780 ft 415 kts 226°
2026-04-29 13:03 53.42717 105.88614 29197 ft 411 kts 225°
2026-04-29 13:03 53.40568 105.85475 28718 ft 406 kts 225°
2026-04-29 13:04 53.38445 105.82378 28195 ft 402 kts 225°
2026-04-29 13:04 53.36350 105.79325 27692 ft 398 kts 225°
2026-04-29 13:04 53.34273 105.76301 27187 ft 394 kts 225°
2026-04-29 13:04 53.32212 105.73303 26692 ft 391 kts 225°
2026-04-29 13:05 53.30161 105.70325 26194 ft 389 kts 225°
2026-04-29 13:05 53.28150 105.67407 25718 ft 387 kts 225°
2026-04-29 13:05 53.26118 105.64466 25221 ft 385 kts 225°
2026-04-29 13:05 53.24093 105.61539 24692 ft 385 kts 225°
2026-04-29 13:06 53.22062 105.58605 24090 ft 386 kts 225°
2026-04-29 13:06 53.20041 105.55686 23595 ft 384 kts 224°
2026-04-29 13:06 53.18018 105.52772 23061 ft 382 kts 224°
2026-04-29 13:06 53.16017 105.49894 22597 ft 378 kts 224°
2026-04-29 13:07 53.14032 105.47041 22147 ft 375 kts 224°
2026-04-29 13:07 53.12062 105.44211 21678 ft 372 kts 224°
2026-04-29 13:07 53.10135 105.41447 21241 ft 369 kts 224°
2026-04-29 13:07 53.08194 105.38665 20790 ft 366 kts 224°
2026-04-29 13:08 53.06265 105.35903 20363 ft 364 kts 224°
2026-04-29 13:08 53.04348 105.33161 19942 ft 362 kts 224°
2026-04-29 13:08 53.02439 105.30434 19507 ft 360 kts 224°
2026-04-29 13:08 53.00541 105.27724 19076 ft 359 kts 224°
2026-04-29 13:09 52.98646 105.25025 18657 ft 358 kts 224°
2026-04-29 13:09 52.96757 105.22349 18167 ft 357 kts 222°
2026-04-29 13:09 52.94617 105.20261 17702 ft 360 kts 204°
2026-04-29 13:09 52.92304 105.18847 17305 ft 357 kts 203°
2026-04-29 13:10 52.89947 105.17416 16857 ft 355 kts 203°
2026-04-29 13:10 52.87663 105.16018 16431 ft 353 kts 203°
2026-04-29 13:10 52.85367 105.14600 16014 ft 351 kts 203°
2026-04-29 13:10 52.83088 105.13181 15601 ft 349 kts 203°
2026-04-29 13:11 52.80823 105.11765 15194 ft 347 kts 203°
2026-04-29 13:11 52.78570 105.10355 14806 ft 345 kts 203°
2026-04-29 13:11 52.76328 105.08950 14383 ft 344 kts 203°
2026-04-29 13:11 52.74094 105.07550 13966 ft 343 kts 204°
2026-04-29 13:12 52.71862 105.06153 13513 ft 341 kts 204°
2026-04-29 13:12 52.69649 105.04769 13090 ft 339 kts 204°
2026-04-29 13:12 52.67448 105.03394 12684 ft 337 kts 204°
2026-04-29 13:12 52.65265 105.02032 12281 ft 334 kts 204°
2026-04-29 13:13 52.63120 105.00695 11896 ft 332 kts 204°
2026-04-29 13:13 52.60959 104.99349 11506 ft 331 kts 204°
2026-04-29 13:13 52.58808 104.98010 11114 ft 329 kts 204°
2026-04-29 13:13 52.56666 104.96679 10725 ft 327 kts 204°
2026-04-29 13:14 52.54570 104.95380 10585 ft 317 kts 204°
2026-04-29 13:14 52.52539 104.94121 10447 ft 307 kts 205°
2026-04-29 13:14 52.50566 104.92898 10301 ft 298 kts 205°
2026-04-29 13:14 52.48640 104.91705 10058 ft 294 kts 205°
2026-04-29 13:15 52.46730 104.90523 9742 ft 292 kts 205°
2026-04-29 13:15 52.44833 104.89350 9413 ft 291 kts 205°
2026-04-29 13:15 52.42945 104.88185 9090 ft 289 kts 205°
2026-04-29 13:15 52.41085 104.87039 8782 ft 287 kts 205°
2026-04-29 13:16 52.39218 104.85889 8331 ft 287 kts 205°
2026-04-29 13:16 52.37358 104.84744 7957 ft 282 kts 205°
2026-04-29 13:16 52.35539 104.83626 7612 ft 275 kts 205°
2026-04-29 13:16 52.33769 104.82539 7306 ft 268 kts 205°
2026-04-29 13:17 52.32045 104.81481 7010 ft 261 kts 205°
2026-04-29 13:17 52.30370 104.80455 6749 ft 253 kts 205°
2026-04-29 13:17 52.28726 104.79447 6477 ft 251 kts 205°
2026-04-29 13:17 52.27130 104.78387 6174 ft 243 kts 216°
2026-04-29 13:18 52.25904 104.76664 6007 ft 224 kts 232°
2026-04-29 13:18 52.24809 104.74896 5880 ft 219 kts 230°
2026-04-29 13:18 52.23727 104.73214 5770 ft 209 kts 230°
2026-04-29 13:18 52.22705 104.71639 5695 ft 201 kts 230°
2026-04-29 13:19 52.21697 104.70088 5556 ft 196 kts 230°
2026-04-29 13:19 52.20705 104.68552 5353 ft 196 kts 232°
2026-04-29 13:19 52.20042 104.66715 5097 ft 184 kts 270°
2026-04-29 13:19 52.20263 104.64816 4939 ft 165 kts 293°
2026-04-29 13:20 52.20588 104.63058 4847 ft 162 kts 292°
2026-04-29 13:20 52.20973 104.61303 4627 ft 164 kts 296°
2026-04-29 13:20 52.21409 104.59564 4359 ft 164 kts 296°
2026-04-29 13:20 52.21851 104.57871 4101 ft 163 kts 297°
2026-04-29 13:21 52.22289 104.56198 3883 ft 157 kts 297°
2026-04-29 13:21 52.22699 104.54643 3648 ft 144 kts 298°
2026-04-29 13:21 52.23078 104.53208 3435 ft 134 kts 298°
2026-04-29 13:21 52.23448 104.51814 3246 ft 134 kts 297°
2026-04-29 13:22 52.23823 104.50396 3055 ft 140 kts 297°
2026-04-29 13:22 52.24214 104.48919 2809 ft 140 kts 297°
2026-04-29 13:22 52.24568 104.47475 2623 ft 135 kts 296°
2026-04-29 13:22 52.24956 104.46041 2337 ft 141 kts 297°
2026-04-29 13:23 52.25354 104.44589 2181 ft 140 kts 295°
2026-04-29 13:23 52.25742 104.43142 2010 ft 141 kts 295°
2026-04-29 13:23 52.26124 104.41679 1733 ft 138 kts 294°
2026-04-29 13:23 52.26494 104.40285 1652 ft 120 kts 294°
2026-04-29 13:24 52.26740 104.39356 1649 ft 59 kts 294°
2026-04-29 13:24 52.26871 104.38879 1650 ft 41 kts 293°
2026-04-29 13:24 52.26972 104.38500 1648 ft 34 kts 293°
2026-04-29 13:24 52.27037 104.38254 1650 ft 13 kts 293°
2026-04-29 13:25 52.27050 104.38166 1651 ft 12 kts 267°
2026-04-29 13:25 52.26972 104.38064 1650 ft 5 kts 204°
2026-04-29 13:25 52.26942 104.38042 1650 ft 5 kts 204°
2026-04-29 13:26 52.26912 104.38020 1650 ft 5 kts 204°
2026-04-29 13:26 52.26882 104.37997 1650 ft 5 kts 204°
2026-04-29 13:26 52.26847 104.37963 1650 ft 6 kts 224°
2026-04-29 13:26 52.26840 104.37894 1650 ft 7 kts 287°
2026-04-29 13:27 52.26859 104.37818 1650 ft 8 kts 292°
2026-04-29 13:27 52.26882 104.37730 1650 ft 10 kts 293°
2026-04-29 13:27 52.26911 104.37621 1650 ft 11 kts 294°
2026-04-29 13:27 52.26944 104.37499 1650 ft 12 kts 293°
2026-04-29 13:28 52.26975 104.37381 1650 ft 11 kts 293°
2026-04-29 13:28 52.26997 104.37288 1650 ft 9 kts 282°
2026-04-29 13:28 52.26991 104.37193 1650 ft 8 kts 257°
2026-04-29 13:28 52.26997 104.37102 1650 ft 8 kts 288°
2026-04-29 13:29 52.27015 104.37017 1650 ft 8 kts 290°
2026-04-29 13:29 52.27033 104.36936 1650 ft 8 kts 290°
2026-04-29 13:29 52.27051 104.36857 1650 ft 7 kts 290°
2026-04-29 13:29 52.27068 104.36780 1650 ft 7 kts 290°
2026-04-29 13:30 52.27084 104.36712 1650 ft 5 kts 290°
2026-04-29 13:30 52.27103 104.36696 1650 ft 3 kts
2026-04-29 13:30 52.27124 104.36705 1650 ft 3 kts 14°
2026-04-29 13:30 52.27143 104.36716 1650 ft 3 kts 20°
2026-04-29 13:31 52.27144 104.36716 1650 ft 0 kts 20°